Content
SEND FEEDBACK

Daily
Averages
Monthly
Summary
United States of America

WALLSBURG, UTAH


Home > North America > United States > Utah
Elevation: 5833 feet     Latitude: 40 24N     Longitude: 111 32W

WEATHER
 
SELECT A DAY
Number of Records: 97,500;   Date Range: 2/4/02 - 8/28/14
 
SHARE

PRINT THIS DATA

[ ← Previous Day ]
WEATHER ALMANAC - FEBRUARY 5, 2013
[ Next Day → ]
[ °C ]   °F
Weather ElementAverageHighLow
Temperature26.2 °F41 °F (3:35 pm)12.2 °F (12:55 am)
Dewpoint18.5 °F28.4 °F (5:15 pm)8.6 °F (12:55 am)
Humidity74.2 %93 % (2:55 am)49 % (3:35 pm)
Barometer30.04 in30.18 in (12:35 am)29.89 in (11:55 pm)
Wind Speed1.7 mph6.9 mph (2:15 am)
Weather ElementAverage
Visibility9.7 mi
Wind DirectionENE (52.3 °)

Weather ElementTotal
Precipitation---
Heating Degree Days38.4 (Base 65)
Averaged from 69 records on February 5, 2013
WEATHER CONDITIONS BREAKOUT
WIND DIRECTION BREAKOUT
WEATHER BY HOUR - FEBRUARY 5, 2013
[ °C ]   °F
Local TimeTemperatureDewpointHumidityBarometerVisibilityWind DirectionWind SpeedGust SpeedPrecipitationEventsConditions
12:35 AM15.8 °F12.2 °F86 %30.18 in10.0 miCalmClear
12:55 AM12.2 °F8.6 °F85 %30.17 in10.0 miCalmClear
1:15 AM17.6 °F12.2 °F79 %30.17 in10.0 miCalmClear
1:35 AM14.0 °F10.4 °F86 %30.16 in10.0 miCalmClear
1:55 AM12.2 °F8.6 °F85 %30.17 in10.0 miESE (120°)5.8 mphClear
2:15 AM15.8 °F12.2 °F86 %30.17 in10.0 miESE (110°)6.9 mphClear
2:35 AM14.0 °F10.4 °F86 %30.17 in10.0 miCalmMostly Cloudy
2:55 AM15.8 °F14.0 °F93 %30.17 in10.0 miCalmScattered Clouds
3:15 AM17.6 °F14.0 °F86 %30.16 in7.0 miCalmScattered Clouds
3:35 AM14.0 °F12.2 °F93 %30.14 in10.0 miCalmClear
3:55 AM14.0 °F12.2 °F93 %30.14 in10.0 miEast (100°)4.6 mphClear
4:15 AM12.2 °F10.4 °F92 %30.13 in10.0 miESE (110°)5.8 mphClear
4:35 AM14.0 °F10.4 °F86 %30.14 in10.0 miCalmClear
4:55 AM14.0 °F12.2 °F93 %30.14 in7.0 miCalmClear
5:15 AM14.0 °F12.2 °F93 %30.14 in7.0 miCalmClear
5:35 AM14.0 °F12.2 °F93 %30.13 in7.0 miSSE (150°)3.5 mphClear
5:55 AM14.0 °F12.2 °F93 %30.13 in7.0 miCalmClear
6:15 AM12.2 °F10.4 °F92 %30.11 in10.0 miCalmClear
6:35 AM14.0 °F12.2 °F93 %30.11 in10.0 miESE (110°)6.9 mphClear
6:55 AM15.8 °F12.2 °F86 %30.11 in10.0 miSE (130°)5.8 mphClear
7:15 AM14.0 °F10.4 °F86 %30.12 in10.0 miWSW (250°)3.5 mphClear
7:35 AM14.0 °F12.2 °F93 %30.13 in7.0 miCalmClear
7:55 AM12.2 °F10.4 °F92 %30.14 in7.0 miCalmClear
8:15 AM15.8 °F14.0 °F93 %30.14 in7.0 miCalmClear
8:35 AM17.6 °F14.0 °F86 %30.13 in10.0 miCalmClear
8:55 AM19.4 °F15.8 °F86 %30.13 in10.0 miSE (140°)5.8 mphClear
9:15 AM23.0 °F17.6 °F80 %30.13 in10.0 miENE (60°)3.5 mphClear
9:35 AM26.6 °F17.6 °F69 %30.11 in10.0 miEast (100°)4.6 mphClear
9:55 AM23.0 °F17.6 °F80 %30.11 in10.0 miWest (280°)4.6 mphClear
10:15 AM26.6 °F17.6 °F69 %30.10 in10.0 miCalmClear
10:35 AM24.8 °F17.6 °F74 %30.10 in10.0 miCalmClear
10:55 AM26.6 °F17.6 °F69 %30.09 in10.0 miCalmClear
11:15 AM30.2 °F19.4 °F64 %30.09 in10.0 miEast (100°)3.5 mphClear
11:35 AM32.0 °F19.4 °F60 %30.09 in10.0 miCalmClear
11:55 AM33.8 °F17.6 °F52 %30.07 in10.0 miCalmClear
12:15 PM32.0 °F19.4 °F60 %30.05 in10.0 miCalmClear
12:35 PM32.0 °F17.6 °F55 %30.05 in10.0 miCalmClear
12:55 PM35.6 °F19.4 °F52 %30.02 in10.0 miCalmScattered Clouds
1:15 PM35.6 °F21.2 °F56 %30.01 in10.0 miCalmMostly Cloudy
1:35 PM35.6 °F21.2 °F56 %30.00 in10.0 miCalmOvercast
1:55 PM35.6 °F23.0 °F60 %29.99 in10.0 miCalmOvercast
2:15 PM35.6 °F21.2 °F56 %29.97 in10.0 miCalmOvercast
2:35 PM35.6 °F23.0 °F60 %29.96 in10.0 miCalmOvercast
2:55 PM37.4 °F23.0 °F56 %29.95 in10.0 miCalmOvercast
3:15 PM37.4 °F24.8 °F60 %29.95 in10.0 miNW (320°)5.8 mphOvercast
3:35 PM41.0 °F23.0 °F49 %29.94 in10.0 miCalmMostly Cloudy
3:55 PM37.4 °F23.0 °F56 %29.93 in10.0 miCalmScattered Clouds
4:15 PM37.4 °F24.8 °F60 %29.94 in10.0 miSouth (190°)3.5 mph
4:55 PM35.6 °F26.6 °F70 %29.93 in10.0 miCalmMostly Cloudy
5:15 PM35.6 °F28.4 °F75 %29.93 in10.0 miESE (110°)3.5 mphOvercast
5:35 PM35.6 °F26.6 °F70 %29.92 in10.0 miCalmMostly Cloudy
5:55 PM35.6 °F23.0 °F60 %29.93 in10.0 miNorth (360°)5.8 mphMostly Cloudy
6:15 PM35.6 °F24.8 °F65 %29.92 in10.0 miESE (110°)4.6 mphScattered Clouds
6:35 PM37.4 °F24.8 °F60 %29.92 in10.0 miENE (60°)5.8 mphMostly Cloudy
7:15 PM37.4 °F24.8 °F60 %29.93 in10.0 miCalmOvercast
7:35 PM35.6 °F26.6 °F70 %29.93 in10.0 miENE (70°)3.5 mphOvercast
7:55 PM37.4 °F24.8 °F60 %29.93 in10.0 miEast (90°)3.5 mphScattered Clouds
8:15 PM33.8 °F26.6 °F75 %29.93 in10.0 miSW (220°)3.5 mphClear
8:35 PM33.8 °F24.8 °F70 %29.92 in10.0 miCalmClear
8:55 PM32.0 °F23.0 °F69 %29.92 in10.0 miESE (110°)3.5 mphClear
9:15 PM32.0 °F23.0 °F69 %29.92 in10.0 miEast (90°)4.6 mphScattered Clouds
9:35 PM32.0 °F23.0 °F69 %29.92 in10.0 miESE (120°)5.8 mphMostly Cloudy
9:55 PM33.8 °F24.8 °F70 %29.92 in10.0 miCalmMostly Cloudy
10:15 PM32.0 °F24.8 °F75 %29.92 in10.0 miCalmScattered Clouds
10:35 PM32.0 °F23.0 °F69 %29.91 in10.0 miCalmScattered Clouds
10:55 PM32.0 °F23.0 °F69 %29.91 in10.0 miCalmMostly Cloudy
11:15 PM32.0 °F24.8 °F75 %29.90 in10.0 miCalmOvercast
11:35 PM32.0 °F24.8 °F75 %29.90 in10.0 miCalmMostly Cloudy
11:55 PM28.4 °F23.0 °F80 %29.89 in10.0 miCalmScattered Clouds
Hourly data recorded from K36U, located miles away from Wallsburg, Utah







STORIES FROM OUR PARTNERS